• In Belarus
  • List of Countries
  • For 7 days
  • Water Temperature
  • Weather Map
  • Weather Widgets
  • user-avatar
    Login

    Hourly Weather Ganne Tiqwa

    Today, 2 June, Tuesday

    Time Temperature Precipitation Wind Pressure Humidity
    00:00 +26°C° 0 mm 3 mps 749 mmHg 39%
    01:00 +27°C° 0 mm 3 mps 748 mmHg 35%
    02:00 +28°C° 0 mm 4 mps 748 mmHg 31%
    03:00 +28°C° 0 mm 4 mps 748 mmHg 31%
    04:00 +28°C° 0 mm 4 mps 748 mmHg 32%
    05:00 +28°C° 0 mm 4 mps 748 mmHg 32%
    06:00 +28°C° 0 mm 4 mps 748 mmHg 33%
    07:00 +29°C° 0 mm 5 mps 748 mmHg 33%
    08:00 +30°C° 0 mm 5 mps 749 mmHg 34%
    09:00 +29°C° 0 mm 6 mps 749 mmHg 41%
    10:00 +29°C° 0 mm 7 mps 749 mmHg 49%
    11:00 +28°C° 0 mm 7 mps 749 mmHg 56%
    12:00 +28°C° 0 mm 7 mps 749 mmHg 54%
    13:00 +27°C° 0 mm 8 mps 749 mmHg 52%
    14:00 +27°C° 0 mm 8 mps 749 mmHg 50%
    15:00 +26°C° 0 mm 7 mps 749 mmHg 54%
    16:00 +26°C° 0 mm 6 mps 750 mmHg 58%
    17:00 +25°C° 0 mm 5 mps 750 mmHg 61%
    18:00 +23°C° 0 mm 5 mps 750 mmHg 67%
    19:00 +22°C° 0 mm 4 mps 750 mmHg 72%
    20:00 +22°C° 0 mm 3 mps 751 mmHg 78%
    21:00 +22°C° 0 mm 3 mps 751 mmHg 77%
    22:00 +21°C° 0 mm 3 mps 751 mmHg 77%
    23:00 +21°C° 0 mm 3 mps 751 mmHg 77%

    Tomorrow, 3 June, Wednesday

    Time Temperature Precipitation Wind Pressure Humidity
    00:00 +21°C° 0 mm 2 mps 751 mmHg 77%
    01:00 +21°C° 0 mm 2 mps 751 mmHg 77%
    02:00 +20°C° 0 mm 2 mps 751 mmHg 77%
    03:00 +20°C° 0 mm 2 mps 751 mmHg 76%
    04:00 +20°C° 0 mm 2 mps 751 mmHg 76%
    05:00 +20°C° 0 mm 2 mps 752 mmHg 76%
    06:00 +21°C° 0 mm 2 mps 752 mmHg 71%
    07:00 +23°C° 0 mm 2 mps 752 mmHg 66%
    08:00 +24°C° 0 mm 3 mps 752 mmHg 61%
    09:00 +25°C° 0 mm 3 mps 752 mmHg 56%
    10:00 +26°C° 0 mm 4 mps 752 mmHg 51%
    11:00 +27°C° 0 mm 4 mps 752 mmHg 46%
    12:00 +27°C° 0 mm 4 mps 752 mmHg 45%
    13:00 +27°C° 0 mm 4 mps 752 mmHg 45%
    14:00 +27°C° 0 mm 5 mps 751 mmHg 44%
    15:00 +27°C° 0 mm 4 mps 752 mmHg 46%
    16:00 +26°C° 0 mm 4 mps 752 mmHg 48%
    17:00 +25°C° 0 mm 4 mps 752 mmHg 50%
    18:00 +25°C° 0 mm 3 mps 752 mmHg 53%
    19:00 +24°C° 0 mm 2 mps 752 mmHg 55%
    20:00 +23°C° 0 mm 1 mps 752 mmHg 58%
    21:00 +23°C° 0 mm 2 mps 752 mmHg 57%
    22:00 +23°C° 0 mm 2 mps 752 mmHg 57%
    23:00 +21°C° 0 mm 2 mps 752 mmHg 57%

    Day after tomorrow, 4 June, Thursday

    Time Temperature Precipitation Wind Pressure Humidity
    00:00 +21°C° 0 mm 2 mps 752 mmHg 56%
    01:00 +22°C° 0 mm 1 mps 752 mmHg 55%
    02:00 +21°C° 0 mm 1 mps 752 mmHg 54%
    03:00 +21°C° 0 mm 1 mps 752 mmHg 53%
    04:00 +21°C° 0 mm 1 mps 752 mmHg 52%
    05:00 +21°C° 0 mm 1 mps 752 mmHg 50%
    06:00 +23°C° 0 mm 1 mps 752 mmHg 43%
    07:00 +26°C° 0 mm 1 mps 752 mmHg 36%
    08:00 +28°C° 0 mm 1 mps 753 mmHg 29%
    09:00 +29°C° 0 mm 2 mps 753 mmHg 30%
    10:00 +29°C° 0 mm 3 mps 753 mmHg 30%
    11:00 +30°C° 0 mm 4 mps 753 mmHg 31%
    12:00 +30°C° 0 mm 5 mps 753 mmHg 35%
    13:00 +30°C° 0 mm 6 mps 752 mmHg 39%
    14:00 +29°C° 0 mm 7 mps 752 mmHg 42%
    15:00 +29°C° 0 mm 7 mps 752 mmHg 45%
    16:00 +28°C° 0 mm 7 mps 752 mmHg 49%
    17:00 +27°C° 0 mm 7 mps 752 mmHg 52%
    18:00 +26°C° 0 mm 6 mps 753 mmHg 56%
    19:00 +25°C° 0 mm 5 mps 753 mmHg 60%
    20:00 +23°C° 0 mm 4 mps 754 mmHg 64%
    21:00 +23°C° 0 mm 4 mps 754 mmHg 65%
    22:00 +22°C° 0 mm 4 mps 754 mmHg 66%
    23:00 +22°C° 0 mm 4 mps 754 mmHg 67%

    5 June, Friday

    Time Temperature Precipitation Wind Pressure Humidity
    00:00 +22°C° 0 mm 3 mps 754 mmHg 69%
    01:00 +21°C° 0 mm 3 mps 754 mmHg 71%
    02:00 +21°C° 0 mm 2 mps 753 mmHg 73%
    03:00 +21°C° 0 mm 2 mps 754 mmHg 75%
    04:00 +20°C° 0 mm 2 mps 754 mmHg 76%
    05:00 +20°C° 0 mm 2 mps 754 mmHg 78%
    06:00 +23°C° 0 mm 2 mps 754 mmHg 71%
    07:00 +24°C° 0 mm 2 mps 754 mmHg 63%
    08:00 +26°C° 0 mm 3 mps 754 mmHg 56%
    09:00 +27°C° 0 mm 3 mps 754 mmHg 52%
    10:00 +28°C° 0 mm 4 mps 754 mmHg 48%
    11:00 +29°C° 0 mm 5 mps 754 mmHg 44%
    12:00 +30°C° 0 mm 5 mps 754 mmHg 44%
    13:00 +30°C° 0 mm 6 mps 754 mmHg 43%
    14:00 +30°C° 0 mm 7 mps 753 mmHg 43%
    15:00 +29°C° 0 mm 7 mps 753 mmHg 43%
    16:00 +29°C° 0 mm 6 mps 753 mmHg 44%
    17:00 +28°C° 0 mm 6 mps 752 mmHg 44%
    18:00 +27°C° 0 mm 5 mps 753 mmHg 48%
    19:00 +26°C° 0 mm 5 mps 753 mmHg 52%
    20:00 +25°C° 0 mm 4 mps 753 mmHg 56%
    21:00 +24°C° 0 mm 3 mps 753 mmHg 58%
    22:00 +24°C° 0 mm 3 mps 753 mmHg 60%
    23:00 +22°C° 0 mm 3 mps 753 mmHg 61%

    6 June, Saturday

    Time Temperature Precipitation Wind Pressure Humidity
    00:00 +22°C° 0 mm 3 mps 753 mmHg 64%
    01:00 +21°C° 0 mm 3 mps 753 mmHg 67%
    02:00 +21°C° 0 mm 2 mps 753 mmHg 70%
    03:00 +20°C° 0 mm 2 mps 753 mmHg 71%
    04:00 +20°C° 0 mm 2 mps 753 mmHg 72%
    05:00 +21°C° 0 mm 1 mps 753 mmHg 73%
    06:00 +23°C° 0 mm 1 mps 753 mmHg 66%
    07:00 +24°C° 0 mm 2 mps 753 mmHg 59%
    08:00 +26°C° 0 mm 2 mps 753 mmHg 52%
    09:00 +28°C° 0 mm 3 mps 753 mmHg 47%
    10:00 +29°C° 0 mm 3 mps 753 mmHg 43%
    11:00 +32°C° 0 mm 4 mps 753 mmHg 39%
    12:00 +32°C° 0 mm 5 mps 752 mmHg 40%
    13:00 +32°C° 0 mm 6 mps 752 mmHg 42%
    14:00 +32°C° 0 mm 6 mps 751 mmHg 43%
    15:00 +30°C° 0 mm 6 mps 751 mmHg 45%
    16:00 +30°C° 0 mm 6 mps 751 mmHg 47%
    17:00 +29°C° 0 mm 6 mps 750 mmHg 48%
    18:00 +28°C° 0 mm 5 mps 750 mmHg 53%
    19:00 +26°C° 0 mm 4 mps 751 mmHg 58%
    20:00 +25°C° 0 mm 2 mps 751 mmHg 63%
    21:00 +25°C° 0 mm 2 mps 751 mmHg 67%
    22:00 +24°C° 0 mm 2 mps 751 mmHg 72%
    23:00 +23°C° 0 mm 2 mps 751 mmHg 76%

    7 June, Sunday

    Time Temperature Precipitation Wind Pressure Humidity
    00:00 +23°C° 0 mm 2 mps 751 mmHg 77%
    01:00 +23°C° 0 mm 1 mps 751 mmHg 79%
    02:00 +22°C° 0 mm 1 mps 751 mmHg 80%
    03:00 +22°C° 0 mm 1 mps 751 mmHg 80%
    04:00 +20°C° 0 mm 0 mps 751 mmHg 79%
    05:00 +20°C° 0 mm 0 mps 751 mmHg 79%
    06:00 +24°C° 0 mm 1 mps 751 mmHg 71%
    07:00 +25°C° 0 mm 1 mps 751 mmHg 63%
    08:00 +27°C° 0 mm 1 mps 751 mmHg 55%
    09:00 +28°C° 0 mm 2 mps 751 mmHg 51%
    10:00 +30°C° 0 mm 3 mps 751 mmHg 48%
    11:00 +32°C° 0 mm 4 mps 751 mmHg 45%
    12:00 +32°C° 0 mm 4 mps 750 mmHg 45%
    13:00 +32°C° 0 mm 5 mps 750 mmHg 45%
    14:00 +33°C° 0 mm 6 mps 749 mmHg 45%
    15:00 +32°C° 0 mm 6 mps 749 mmHg 47%
    16:00 +30°C° 0 mm 5 mps 749 mmHg 48%
    17:00 +30°C° 0 mm 5 mps 749 mmHg 49%
    18:00 +28°C° 0 mm 4 mps 749 mmHg 55%
    19:00 +27°C° 0 mm 3 mps 749 mmHg 62%
    20:00 +25°C° 0 mm 2 mps 749 mmHg 68%
    21:00 +25°C° 0 mm 2 mps 749 mmHg 70%
    22:00 +25°C° 0 mm 1 mps 750 mmHg 71%
    23:00 +24°C° 0 mm 1 mps 750 mmHg 73%
    Show more